Date,Installs,Update checks
2014-10-04,6,
2014-10-05,1,
2014-10-06,2,
2014-10-07,0,
2014-10-08,1,
2014-10-09,1,
2014-10-10,0,
2014-10-11,0,
2014-10-12,1,
2014-10-13,0,
2014-10-14,2,
2014-10-15,0,
2014-10-16,0,
2014-10-17,0,
2014-10-18,0,
2014-10-19,0,
2014-10-20,0,
2014-10-21,1,
2014-10-22,0,
2014-10-23,1,11
2014-10-24,0,3
2014-10-25,0,9
2014-10-26,0,6
2014-10-27,0,9
2014-10-28,0,4
2014-10-29,0,8
2014-10-30,0,5
2014-10-31,0,4
2014-11-01,0,7
2014-11-02,0,5
2014-11-03,0,9
2014-11-04,1,7
2014-11-05,0,6
2014-11-06,0,9
2014-11-07,0,7
2014-11-08,0,8
2014-11-09,0,9
2014-11-10,0,10
2014-11-11,2,5
2014-11-12,0,10
2014-11-13,0,7
2014-11-14,1,10
2014-11-15,0,7
2014-11-16,0,2
2014-11-17,0,10
2014-11-18,0,7
2014-11-19,1,7
2014-11-20,0,8
2014-11-21,0,9
2014-11-22,0,5
2014-11-23,0,7
2014-11-24,0,6
2014-11-25,0,8
2014-11-26,0,5
2014-11-27,0,8
2014-11-28,0,7
2014-11-29,0,8
2014-11-30,0,8
2014-12-01,0,8
2014-12-02,0,7
2014-12-03,0,9
2014-12-04,2,9
2014-12-05,0,9
2014-12-06,0,10
2014-12-07,2,8
2014-12-08,1,11
2014-12-09,2,9
2014-12-10,1,12
2014-12-11,0,13
2014-12-12,0,12
2014-12-13,1,12
2014-12-14,0,10
2014-12-15,1,17
2014-12-16,0,13
2014-12-17,1,15
2014-12-18,1,14
2014-12-19,2,16
2014-12-20,0,14
2014-12-21,0,17
2014-12-22,0,13
2014-12-23,0,18
2014-12-24,0,14
2014-12-25,0,17
2014-12-26,0,17
2014-12-27,2,13
2014-12-28,0,20
2014-12-29,0,17
2014-12-30,0,14
2014-12-31,0,14
2015-01-01,2,13
2015-01-02,0,13
2015-01-03,0,12
2015-01-04,0,13
2015-01-05,0,18
2015-01-06,1,16
2015-01-07,1,22
2015-01-08,0,19
2015-01-09,0,19
2015-01-10,0,19
2015-01-11,0,17
2015-01-12,0,18
2015-01-13,0,19
2015-01-14,0,19
2015-01-15,0,17
2015-01-16,1,19
2015-01-17,0,20
2015-01-18,0,12
2015-01-19,1,21
2015-01-20,1,18
2015-01-21,0,19
2015-01-22,1,17
2015-01-23,0,21
2015-01-24,0,14
2015-01-25,0,19
2015-01-26,0,17
2015-01-27,0,16
2015-01-28,1,20
2015-01-29,0,19
2015-01-30,0,20
2015-01-31,0,19
2015-02-01,1,20
2015-02-02,1,20
2015-02-03,0,22
2015-02-04,0,18
2015-02-05,1,17
2015-02-06,0,16
2015-02-07,1,13
2015-02-08,0,18
2015-02-09,0,15
2015-02-10,1,15
2015-02-11,0,19
2015-02-12,0,13
2015-02-13,0,15
2015-02-14,0,18
2015-02-15,1,16
2015-02-16,0,17
2015-02-17,0,18
2015-02-18,0,16
2015-02-19,0,11
2015-02-20,0,14
2015-02-21,0,13
2015-02-22,0,15
2015-02-23,0,15
2015-02-24,0,15
2015-02-25,0,14
2015-02-26,0,17
2015-02-27,1,16
2015-02-28,0,17
2015-03-01,0,16
2015-03-02,0,16
2015-03-03,0,22
2015-03-04,0,17
2015-03-05,0,18
2015-03-06,0,18
2015-03-07,0,17
2015-03-08,0,19
2015-03-09,1,19
2015-03-10,0,24
2015-03-11,0,18
2015-03-12,0,17
2015-03-13,0,18
2015-03-14,0,12
2015-03-15,0,20
2015-03-16,0,21
2015-03-17,0,20
2015-03-18,0,23
2015-03-19,0,16
2015-03-20,0,22
2015-03-21,0,15
2015-03-22,0,16
2015-03-23,0,16
2015-03-24,0,18
2015-03-25,0,19
2015-03-26,0,17
2015-03-27,0,19
2015-03-28,0,18
2015-03-29,0,17
2015-03-30,0,19
2015-03-31,0,14
2015-04-01,0,17
2015-04-02,0,17
2015-04-03,0,19
2015-04-04,0,15
2015-04-05,0,18
2015-04-06,0,16
2015-04-07,1,20
2015-04-08,0,19
2015-04-09,0,22
2015-04-10,0,15
2015-04-11,0,21
2015-04-12,0,15
2015-04-13,0,17
2015-04-14,0,18
2015-04-15,0,20
2015-04-16,0,12
2015-04-17,0,20
2015-04-18,0,15
2015-04-19,0,16
2015-04-20,0,13
2015-04-21,0,17
2015-04-22,0,10
2015-04-23,0,21
2015-04-24,0,13
2015-04-25,0,18
2015-04-26,0,15
2015-04-27,0,18
2015-04-28,0,16
2015-04-29,0,15
2015-04-30,0,15
2015-05-01,0,13
2015-05-02,0,11
2015-05-03,0,16
2015-05-04,0,14
2015-05-05,0,18
2015-05-06,0,11
2015-05-07,0,19
2015-05-08,0,16
2015-05-09,0,15
2015-05-10,0,10
2015-05-11,0,17
2015-05-12,0,15
2015-05-13,0,17
2015-05-14,0,16
2015-05-15,0,15
2015-05-16,0,10
2015-05-17,0,20
2015-05-18,0,15
2015-05-19,0,18
2015-05-20,0,11
2015-05-21,0,17
2015-05-22,0,11
2015-05-23,0,19
2015-05-24,0,13
2015-05-25,0,13
2015-05-26,0,13
2015-05-27,0,15
2015-05-28,0,2
2015-05-29,0,19
2015-05-30,0,9
2015-05-31,0,19
2015-06-01,0,13
2015-06-02,0,18
2015-06-03,0,14
2015-06-04,0,19
2015-06-05,0,18
2015-06-06,0,14
2015-06-07,0,14
2015-06-08,0,18
2015-06-09,0,12
2015-06-10,0,15
2015-06-11,0,11
2015-06-12,0,13
2015-06-13,0,14
2015-06-14,0,12
2015-06-15,0,10
2015-06-16,0,12
2015-06-17,0,12
2015-06-18,0,12
2015-06-19,0,12
2015-06-20,0,10
2015-06-21,0,15
2015-06-22,0,12
2015-06-23,0,14
2015-06-24,0,12
2015-06-25,0,12
2015-06-26,0,12
2015-06-27,0,14
2015-06-28,0,10
2015-06-29,0,14
2015-06-30,0,15
2015-07-01,0,15
2015-07-02,0,11
2015-07-03,0,16
2015-07-04,0,13
2015-07-05,0,11
2015-07-06,0,13
2015-07-07,0,14
2015-07-08,0,12
2015-07-09,0,12
2015-07-10,0,14
2015-07-11,0,7
2015-07-12,0,12
2015-07-13,0,10
2015-07-14,0,13
2015-07-15,0,11
2015-07-16,0,10
2015-07-17,0,13
2015-07-18,0,9
2015-07-19,1,15
2015-07-20,1,11
2015-07-21,1,13
2015-07-22,0,15
2015-07-23,0,13
2015-07-24,0,14
2015-07-25,0,16
2015-07-26,0,15
2015-07-27,0,11
2015-07-28,0,15
2015-07-29,0,8
2015-07-30,0,17
2015-07-31,0,11
2015-08-01,0,16
2015-08-02,1,11
2015-08-03,0,16
2015-08-04,0,9
2015-08-05,1,18
2015-08-06,0,16
2015-08-07,1,13
2015-08-08,0,11
2015-08-09,4,19
2015-08-10,2,15
2015-08-11,1,19
2015-08-12,0,16
2015-08-13,0,19
2015-08-14,2,15
2015-08-15,1,20
2015-08-16,0,16
2015-08-17,0,17
2015-08-18,1,17
2015-08-19,1,20
2015-08-20,0,18
2015-08-21,0,19
2015-08-22,0,16
2015-08-23,0,16
2015-08-24,0,21
2015-08-25,0,19
2015-08-26,0,23
2015-08-27,5,24
2015-08-28,4,26
2015-08-29,2,19
2015-08-30,3,28
2015-08-31,1,24
2015-09-01,0,23
2015-09-02,1,24
2015-09-03,0,21
2015-09-04,0,21
2015-09-05,3,29
2015-09-06,0,25
2015-09-07,1,32
2015-09-08,0,29
2015-09-09,1,31
2015-09-10,2,30
2015-09-11,1,33
2015-09-12,2,27
2015-09-13,2,33
2015-09-14,1,34
2015-09-15,0,33
2015-09-16,0,29
2015-09-17,1,36
2015-09-18,1,26
2015-09-19,1,33
2015-09-20,1,29
2015-09-21,0,40
2015-09-22,0,33
2015-09-23,0,32
2015-09-24,0,34
2015-09-25,1,36
2015-09-26,0,28
2015-09-27,1,35
2015-09-28,0,35
2015-09-29,0,34
2015-09-30,0,36
2015-10-01,2,35
2015-10-02,1,29
2015-10-03,1,33
2015-10-04,1,30
2015-10-05,2,33
2015-10-06,4,38
2015-10-07,1,39
2015-10-08,3,44
2015-10-09,0,37
2015-10-10,0,40
2015-10-11,1,34
2015-10-12,0,45
2015-10-13,0,34
2015-10-14,0,42
2015-10-15,0,31
2015-10-16,0,47
2015-10-17,0,31
2015-10-18,1,37
2015-10-19,0,40
2015-10-20,1,33
2015-10-21,0,39
2015-10-22,0,28
2015-10-23,0,33
2015-10-24,0,34
2015-10-25,0,31
2015-10-26,1,38
2015-10-27,1,36
2015-10-28,0,36
2015-10-29,0,29
2015-10-30,0,40
2015-10-31,1,26
2015-11-01,0,41
2015-11-02,1,36
2015-11-03,0,32
2015-11-04,0,30
2015-11-05,0,35
2015-11-06,0,33
2015-11-07,2,28
2015-11-08,2,32
2015-11-09,0,37
2015-11-10,0,32
2015-11-11,0,33
2015-11-12,0,32
2015-11-13,0,40
2015-11-14,0,24
2015-11-15,1,37
2015-11-16,2,36
2015-11-17,1,36
2015-11-18,2,35
2015-11-19,1,35
2015-11-20,0,39
2015-11-21,0,30
2015-11-22,0,28
2015-11-23,0,34
2015-11-24,0,36
2015-11-25,0,33
2015-11-26,0,34
2015-11-27,0,38
2015-11-28,0,28
2015-11-29,0,39
2015-11-30,0,29
2015-12-01,0,37
2015-12-02,1,27
2015-12-03,2,39
2015-12-04,0,35
2015-12-05,0,32
2015-12-06,1,33
2015-12-07,0,38
2015-12-08,1,35
2015-12-09,0,33
2015-12-10,0,30
2015-12-11,1,32
2015-12-12,1,32
2015-12-13,1,29
2015-12-14,0,33
2015-12-15,0,34
2015-12-16,1,37
2015-12-17,0,31
2015-12-18,1,31
2015-12-19,0,34
2015-12-20,3,28
2015-12-21,0,34
2015-12-22,1,32
2015-12-23,1,40
2015-12-24,5,40
2015-12-25,3,27
2015-12-26,0,38
2015-12-27,1,27
2015-12-28,2,37
2015-12-29,2,30
2015-12-30,0,46
2015-12-31,0,31
2016-01-01,0,30
2016-01-02,0,34
2016-01-03,4,36
2016-01-04,0,34
2016-01-05,0,33
2016-01-06,0,32
2016-01-07,0,40
2016-01-08,0,29
2016-01-09,0,39
2016-01-10,0,30
2016-01-11,0,41
2016-01-12,1,29
2016-01-13,0,34
2016-01-14,0,34
2016-01-15,0,36
2016-01-16,2,33
2016-01-17,1,36
2016-01-18,0,27
2016-01-19,0,42
2016-01-20,0,29
2016-01-21,0,33
2016-01-22,0,30
2016-01-23,1,34
2016-01-24,1,28
2016-01-25,0,37
2016-01-26,0,29
2016-01-27,0,35
2016-01-28,1,29
2016-01-29,0,32
2016-01-30,0,35
2016-01-31,1,31
2016-02-01,5,37
2016-02-02,0,30
2016-02-03,3,33
2016-02-04,1,28
2016-02-05,3,27
2016-02-06,0,22
2016-02-07,1,29
2016-02-08,0,24
2016-02-09,1,31
2016-02-10,0,27
2016-02-11,2,23
2016-02-12,0,23
2016-02-13,3,31
2016-02-14,0,31
2016-02-15,0,26
2016-02-16,2,37
2016-02-17,0,30
2016-02-18,1,38
2016-02-19,0,29
2016-02-20,0,41
2016-02-21,0,25
2016-02-22,1,31
2016-02-23,0,28
2016-02-24,1,36
2016-02-25,0,29
2016-02-26,0,32
2016-02-27,0,31
2016-02-28,2,28
2016-02-29,2,34
2016-03-01,2,34
2016-03-02,1,37
2016-03-03,3,28
2016-03-04,2,35
2016-03-05,2,31
2016-03-06,0,39
2016-03-07,0,38
2016-03-08,1,38
2016-03-09,1,39
2016-03-10,0,35
2016-03-11,0,38
2016-03-12,1,35
2016-03-13,0,32
2016-03-14,0,38
2016-03-15,0,44
2016-03-16,1,35
2016-03-17,1,37
2016-03-18,1,38
2016-03-19,11,32
2016-03-20,3,32
2016-03-21,3,34
2016-03-22,0,38
2016-03-23,3,34
2016-03-24,0,25
2016-03-25,0,40
2016-03-26,0,32
2016-03-27,0,33
2016-03-28,0,40
2016-03-29,0,35
2016-03-30,1,38
2016-03-31,0,33
2016-04-01,0,34
2016-04-02,3,35
2016-04-03,0,29
2016-04-04,2,40
2016-04-05,1,28
2016-04-06,0,39
2016-04-07,1,35
2016-04-08,2,33
2016-04-09,0,31
2016-04-10,0,35
2016-04-11,0,32
2016-04-12,0,34
2016-04-13,1,39
2016-04-14,2,33
2016-04-15,0,45
2016-04-16,1,34
2016-04-17,1,37
2016-04-18,0,38
2016-04-19,0,32
2016-04-20,0,39
2016-04-21,0,33
2016-04-22,0,38
2016-04-23,1,40
2016-04-24,0,32
2016-04-25,0,37
2016-04-26,0,34
2016-04-27,0,42
2016-04-28,0,36
2016-04-29,4,37
2016-04-30,0,40
2016-05-01,0,36
2016-05-02,1,36
2016-05-03,2,44
2016-05-04,0,36
2016-05-05,2,38
2016-05-06,0,38
2016-05-07,0,42
2016-05-08,1,39
2016-05-09,0,43
2016-05-10,0,33
2016-05-11,0,34
2016-05-12,0,44
2016-05-13,0,39
2016-05-14,1,34
2016-05-15,2,38
2016-05-16,0,47
2016-05-17,5,41
2016-05-18,0,37
2016-05-19,1,41
2016-05-20,0,37
2016-05-21,0,46
2016-05-22,1,46
2016-05-23,0,46
2016-05-24,0,46
2016-05-25,0,47
2016-05-26,0,53
2016-05-27,1,51
2016-05-28,0,45
2016-05-29,0,52
2016-05-30,0,56
2016-05-31,1,54
2016-06-01,0,58
2016-06-02,0,57
2016-06-03,1,56
2016-06-04,0,50
2016-06-05,3,66
2016-06-06,0,51
2016-06-07,1,61
2016-06-08,1,46
2016-06-09,0,58
2016-06-10,2,52
2016-06-11,1,59
2016-06-12,0,54
2016-06-13,1,61
2016-06-14,0,61
2016-06-15,0,60
2016-06-16,0,63
2016-06-17,0,59
2016-06-18,0,56
2016-06-19,1,64
2016-06-20,1,59
2016-06-21,3,66
2016-06-22,0,59
2016-06-23,0,61
2016-06-24,0,65
2016-06-25,2,51
2016-06-26,0,56
2016-06-27,2,71
2016-06-28,2,46
2016-06-29,0,70
2016-06-30,2,61
2016-07-01,2,67
2016-07-02,2,57
2016-07-03,3,63
2016-07-04,2,68
2016-07-05,0,59
2016-07-06,2,62
2016-07-07,3,70
2016-07-08,1,66
2016-07-09,1,58
2016-07-10,0,58
2016-07-11,1,71
2016-07-12,1,65
2016-07-13,0,72
2016-07-14,0,73
2016-07-15,1,60
2016-07-16,1,62
2016-07-17,0,68
2016-07-18,1,62
2016-07-19,0,77
2016-07-20,2,59
2016-07-21,0,68
2016-07-22,2,70
2016-07-23,0,66
2016-07-24,0,63
2016-07-25,1,61
2016-07-26,0,61
2016-07-27,1,67
2016-07-28,0,56
2016-07-29,1,67
2016-07-30,0,66
2016-07-31,2,63
2016-08-01,0,59
2016-08-02,1,62
2016-08-03,0,70
2016-08-04,1,58
2016-08-05,0,64
2016-08-06,2,65
2016-08-07,0,69
2016-08-08,3,67
2016-08-09,1,76
2016-08-10,1,63
2016-08-11,0,74
2016-08-12,3,60
2016-08-13,2,67
2016-08-14,0,61
2016-08-15,1,72
2016-08-16,0,63
2016-08-17,0,67
2016-08-18,1,63
2016-08-19,0,70
2016-08-20,0,74
2016-08-21,2,69
2016-08-22,1,74
2016-08-23,0,74
2016-08-24,2,65
2016-08-25,0,69
2016-08-26,0,71
2016-08-27,0,80
2016-08-28,1,67
2016-08-29,0,67
2016-08-30,0,76
2016-08-31,1,66
2016-09-01,1,69
2016-09-02,1,70
2016-09-03,0,67
2016-09-04,6,71
2016-09-05,0,75
2016-09-06,3,64
2016-09-07,0,79
2016-09-08,0,62
2016-09-09,0,71
2016-09-10,2,67
2016-09-11,2,77
2016-09-12,1,76
2016-09-13,0,68
2016-09-14,1,73
2016-09-15,1,63
2016-09-16,0,66
2016-09-17,2,72
2016-09-18,2,59
2016-09-19,2,76
2016-09-20,1,73
2016-09-21,0,72
2016-09-22,2,81
2016-09-23,0,69
2016-09-24,0,72
2016-09-25,0,62
2016-09-26,0,72
2016-09-27,1,59
2016-09-28,0,75
2016-09-29,1,76
2016-09-30,0,76
2016-10-01,1,60
2016-10-02,2,62
2016-10-03,1,71
2016-10-04,0,64
2016-10-05,2,68
2016-10-06,1,71
2016-10-07,2,85
2016-10-08,0,68
2016-10-09,1,67
2016-10-10,0,82
2016-10-11,1,80
2016-10-12,0,73
2016-10-13,1,66
2016-10-14,1,69
2016-10-15,1,70
2016-10-16,1,59
2016-10-17,0,68
2016-10-18,2,71
2016-10-19,0,80
2016-10-20,1,61
2016-10-21,0,78
2016-10-22,0,68
2016-10-23,1,64
2016-10-24,1,70
2016-10-25,1,71
2016-10-26,0,64
2016-10-27,1,76
2016-10-28,2,73
2016-10-29,2,67
2016-10-30,0,69
2016-10-31,0,63
2016-11-01,1,70
2016-11-02,1,80
2016-11-03,0,66
2016-11-04,0,66
2016-11-05,2,78
2016-11-06,3,63
2016-11-07,0,74
2016-11-08,0,65
2016-11-09,1,79
2016-11-10,0,66
2016-11-11,4,80
2016-11-12,5,75
2016-11-13,0,71
2016-11-14,1,81
2016-11-15,2,77
2016-11-16,0,79
2016-11-17,4,80
2016-11-18,3,83
2016-11-19,2,83
2016-11-20,4,84
2016-11-21,2,89
2016-11-22,2,76
2016-11-23,0,88
2016-11-24,1,85
2016-11-25,7,79
2016-11-26,0,87
2016-11-27,0,81
2016-11-28,0,90
2016-11-29,2,87
2016-11-30,1,97
2016-12-01,2,80
2016-12-02,0,88
2016-12-03,0,79
2016-12-04,4,85
2016-12-05,0,94
2016-12-06,0,83
2016-12-07,1,89
2016-12-08,1,74
2016-12-09,1,82
2016-12-10,0,81
2016-12-11,0,84
2016-12-12,1,97
2016-12-13,0,89
2016-12-14,2,88
2016-12-15,2,82
2016-12-16,1,93
2016-12-17,1,80
2016-12-18,1,82
2016-12-19,1,82
2016-12-20,1,99
2016-12-21,0,79
2016-12-22,0,92
2016-12-23,0,88
2016-12-24,3,79
2016-12-25,2,91
2016-12-26,0,102
2016-12-27,1,88
2016-12-28,1,91
2016-12-29,2,88
2016-12-30,0,91
2016-12-31,1,85
2017-01-01,2,89
2017-01-02,1,91
2017-01-03,0,92
2017-01-04,0,82
2017-01-05,1,96
2017-01-06,0,81
2017-01-07,1,87
2017-01-08,2,87
2017-01-09,0,98
2017-01-10,0,86
2017-01-11,1,87
2017-01-12,0,85
2017-01-13,0,86
2017-01-14,1,86
2017-01-15,0,73
2017-01-16,2,85
2017-01-17,3,81
2017-01-18,5,90
2017-01-19,4,82
2017-01-20,0,92
2017-01-21,2,72
2017-01-22,2,83
2017-01-23,0,81
2017-01-24,1,89
2017-01-25,2,82
2017-01-26,1,80
2017-01-27,0,62
2017-01-28,2,78
2017-01-29,1,78
2017-01-30,2,71
2017-01-31,1,77
2017-02-01,4,84
2017-02-02,1,82
2017-02-03,4,76
2017-02-04,0,98
2017-02-05,1,75
2017-02-06,3,108
2017-02-07,1,91
2017-02-08,1,93
2017-02-09,0,103
2017-02-10,0,89
2017-02-11,1,83
2017-02-12,0,93
2017-02-13,2,100
2017-02-14,2,94
2017-02-15,0,100
2017-02-16,3,87
2017-02-17,2,112
2017-02-18,1,91
2017-02-19,0,106
2017-02-20,0,89
2017-02-21,2,99
2017-02-22,1,107
2017-02-23,3,95
2017-02-24,1,96
2017-02-25,3,94
2017-02-26,1,87
2017-02-27,1,103
2017-02-28,0,86
2017-03-01,3,91
2017-03-02,1,94
2017-03-03,1,100
2017-03-04,0,92
2017-03-05,0,96
2017-03-06,3,108
2017-03-07,1,93
2017-03-08,0,100
2017-03-09,1,94
2017-03-10,3,98
2017-03-11,0,94
2017-03-12,0,94
2017-03-13,1,108
2017-03-14,3,100
2017-03-15,1,100
2017-03-16,0,91
2017-03-17,1,106
2017-03-18,2,102
2017-03-19,0,106
2017-03-20,1,104
2017-03-21,1,101
2017-03-22,1,96
2017-03-23,3,96
2017-03-24,2,94
2017-03-25,0,98
2017-03-26,1,79
2017-03-27,0,105
2017-03-28,1,98
2017-03-29,2,92
2017-03-30,1,99
2017-03-31,1,104
2017-04-01,3,105
2017-04-02,0,94
2017-04-03,0,86
2017-04-04,1,99
2017-04-05,2,104
2017-04-06,4,92
2017-04-07,2,113
2017-04-08,2,86
2017-04-09,0,99
2017-04-10,1,104
2017-04-11,1,98
2017-04-12,1,109
2017-04-13,0,102
2017-04-14,0,106
2017-04-15,0,103
2017-04-16,1,98
2017-04-17,0,103
2017-04-18,1,96
2017-04-19,0,102
2017-04-20,0,101
2017-04-21,1,95
2017-04-22,0,8
2017-04-23,2,131
2017-04-24,0,85
2017-04-25,0,112
2017-04-26,0,89
2017-04-27,0,110
2017-04-28,1,97
2017-04-29,2,101
2017-04-30,0,79
2017-05-01,1,102
2017-05-02,0,93
2017-05-03,0,108
2017-05-04,0,91
2017-05-05,1,106
2017-05-06,0,96
2017-05-07,0,103
2017-05-08,1,85
2017-05-09,1,110
2017-05-10,1,97
2017-05-11,1,108
2017-05-12,0,100
2017-05-13,1,110
2017-05-14,3,86
2017-05-15,1,107
2017-05-16,0,93
2017-05-17,3,111
2017-05-18,1,101
2017-05-19,2,114
2017-05-20,2,97
2017-05-21,0,122
2017-05-22,4,87
2017-05-23,1,119
2017-05-24,1,99
2017-05-25,0,99
2017-05-26,1,94
2017-05-27,2,91
2017-05-28,1,97
2017-05-29,2,94
2017-05-30,0,103
2017-05-31,5,100
2017-06-01,1,89
2017-06-02,0,111
2017-06-03,1,82
2017-06-04,3,113
2017-06-05,1,91
2017-06-06,2,114
2017-06-07,0,102
2017-06-08,3,100
2017-06-09,2,105
2017-06-10,1,102
2017-06-11,1,98
2017-06-12,1,107
2017-06-13,2,98
2017-06-14,0,123
2017-06-15,0,104
2017-06-16,3,110
2017-06-17,0,106
2017-06-18,0,104
2017-06-19,3,112
2017-06-20,1,113
2017-06-21,1,110
2017-06-22,0,112
2017-06-23,3,120
2017-06-24,2,96
2017-06-25,0,101
2017-06-26,0,114
2017-06-27,0,97
2017-06-28,0,112
2017-06-29,0,105
2017-06-30,0,105
2017-07-01,2,103
2017-07-02,3,104
2017-07-03,2,115
2017-07-04,0,104
2017-07-05,1,111
2017-07-06,2,90
2017-07-07,0,104
2017-07-08,3,101
2017-07-09,0,91
2017-07-10,2,108
2017-07-11,0,110
2017-07-12,0,115
2017-07-13,1,103
2017-07-14,1,120
2017-07-15,2,86
2017-07-16,1,114
2017-07-17,0,101
2017-07-18,0,102
2017-07-19,0,102
2017-07-20,0,94
2017-07-21,1,139
2017-07-22,1,95
2017-07-23,0,110
2017-07-24,1,109
2017-07-25,1,110
2017-07-26,1,79
2017-07-27,0,114
2017-07-28,1,107
2017-07-29,0,113
2017-07-30,2,96
2017-07-31,0,112
2017-08-01,1,105
2017-08-02,1,105
2017-08-03,2,117
2017-08-04,2,109
2017-08-05,1,110
2017-08-06,0,106
2017-08-07,0,110
2017-08-08,1,109
2017-08-09,2,118
2017-08-10,2,95
2017-08-11,2,120
2017-08-12,1,113
2017-08-13,3,107
2017-08-14,2,108
2017-08-15,0,119
2017-08-16,0,92
2017-08-17,1,111
2017-08-18,1,105
2017-08-19,2,103
2017-08-20,1,92
2017-08-21,1,103
2017-08-22,1,94
2017-08-23,1,80
2017-08-24,1,110
2017-08-25,0,94
2017-08-26,0,92
2017-08-27,1,99
2017-08-28,2,95
2017-08-29,0,97
2017-08-30,2,101
2017-08-31,2,97
2017-09-01,1,89
2017-09-02,3,88
2017-09-03,0,95
2017-09-04,1,96
2017-09-05,0,100
2017-09-06,1,68
2017-09-07,0,94
2017-09-08,1,113
2017-09-09,1,98
2017-09-10,0,91
2017-09-11,0,89
2017-09-12,0,90
2017-09-13,1,70
2017-09-14,0,89
2017-09-15,1,86
2017-09-16,1,101
2017-09-17,2,69
2017-09-18,2,97
2017-09-19,3,106
2017-09-20,2,100
2017-09-21,0,96
2017-09-22,3,99
2017-09-23,2,106
2017-09-24,1,92
2017-09-25,0,93
2017-09-26,1,94
2017-09-27,0,101
2017-09-28,0,89
2017-09-29,1,87
2017-09-30,1,93
2017-10-01,0,85
2017-10-02,1,85
2017-10-03,2,90
2017-10-04,1,80
2017-10-05,0,93
2017-10-06,0,77
2017-10-07,1,98
2017-10-08,0,103
2017-10-09,1,95
2017-10-10,0,101
2017-10-11,1,111
2017-10-12,1,93
2017-10-13,0,111
2017-10-14,1,105
2017-10-15,2,93
2017-10-16,1,98
2017-10-17,1,112
2017-10-18,2,104
2017-10-19,1,104
2017-10-20,1,98
2017-10-21,0,103
2017-10-22,0,85
2017-10-23,0,113
2017-10-24,0,103
2017-10-25,1,101
2017-10-26,0,90
2017-10-27,0,114
2017-10-28,3,112
2017-10-29,1,91
2017-10-30,0,103
2017-10-31,0,113
2017-11-01,0,88
2017-11-02,0,98
2017-11-03,0,105
2017-11-04,1,106
2017-11-05,1,95
2017-11-06,1,60
2017-11-07,1,113
2017-11-08,1,91
2017-11-09,1,102
2017-11-10,1,121
2017-11-11,0,100
2017-11-12,0,95
2017-11-13,1,109
2017-11-14,1,100
2017-11-15,2,107
2017-11-16,0,105
2017-11-17,1,107
2017-11-18,1,103
2017-11-19,1,90
2017-11-20,1,109
2017-11-21,2,97
2017-11-22,2,103
2017-11-23,0,103
2017-11-24,1,95
2017-11-25,0,102
2017-11-26,2,89
2017-11-27,3,114
2017-11-28,0,98
2017-11-29,0,102
2017-11-30,1,85
2017-12-01,1,95
2017-12-02,0,97
2017-12-03,2,101
2017-12-04,2,101
2017-12-05,0,92
2017-12-06,0,98
2017-12-07,1,106
2017-12-08,0,103
2017-12-09,0,104
2017-12-10,2,97
2017-12-11,0,108
2017-12-12,1,106
2017-12-13,0,101
2017-12-14,0,94
2017-12-15,0,108
2017-12-16,3,91
2017-12-17,0,94
2017-12-18,0,98
2017-12-19,2,118
2017-12-20,0,93
2017-12-21,0,109
2017-12-22,0,107
2017-12-23,1,97
2017-12-24,0,96
2017-12-25,2,103
2017-12-26,1,100
2017-12-27,2,99
2017-12-28,1,108
2017-12-29,0,99
2017-12-30,0,100
2017-12-31,0,105
2018-01-01,0,100
2018-01-02,1,101
2018-01-03,0,95
2018-01-04,1,109
2018-01-05,0,103
2018-01-06,0,116
2018-01-07,0,95
2018-01-08,0,103
2018-01-09,1,111
2018-01-10,0,106
2018-01-11,1,96
2018-01-12,0,102
2018-01-13,0,103
2018-01-14,0,99
2018-01-15,0,98
2018-01-16,1,104
2018-01-17,0,104
2018-01-18,0,96
2018-01-19,0,111
2018-01-20,1,96
2018-01-21,2,110
2018-01-22,1,102
2018-01-23,1,114
2018-01-24,0,125
2018-01-25,0,106
2018-01-26,0,117
2018-01-27,0,111
2018-01-28,1,108
2018-01-29,0,104
2018-01-30,1,107
2018-01-31,2,107
2018-02-01,0,123
2018-02-02,1,110
2018-02-03,1,106
2018-02-04,0,100
2018-02-05,1,118
2018-02-06,1,103
2018-02-07,0,110
2018-02-08,2,104
2018-02-09,0,108
2018-02-10,0,106
2018-02-11,0,114
2018-02-12,1,102
2018-02-13,0,110
2018-02-14,0,112
2018-02-15,1,98
2018-02-16,0,99
2018-02-17,0,91
2018-02-18,1,100
2018-02-19,1,103
2018-02-20,0,109
2018-02-21,1,106
2018-02-22,0,107
2018-02-23,0,100
2018-02-24,1,104
2018-02-25,0,97
2018-02-26,1,99
2018-02-27,0,92
2018-02-28,1,102
2018-03-01,1,104
2018-03-02,1,102
2018-03-03,0,72
2018-03-04,2,98
2018-03-05,0,94
2018-03-06,2,95
2018-03-07,3,95
2018-03-08,5,111
2018-03-09,1,108
2018-03-10,1,91
2018-03-11,1,90
2018-03-12,0,107
2018-03-13,0,100
2018-03-14,1,94
2018-03-15,2,105
2018-03-16,1,104
2018-03-17,0,98
2018-03-18,0,92
2018-03-19,1,108
2018-03-20,0,102
2018-03-21,0,93
2018-03-22,1,102
2018-03-23,0,100
2018-03-24,1,118
2018-03-25,1,81
2018-03-26,1,93
2018-03-27,0,101
2018-03-28,0,98
2018-03-29,0,106
2018-03-30,0,103
2018-03-31,1,98
2018-04-01,0,93
2018-04-02,0,90
2018-04-03,0,90
2018-04-04,0,93
2018-04-05,2,83
2018-04-06,3,97
2018-04-07,1,99
2018-04-08,0,99
2018-04-09,1,92
2018-04-10,1,105
2018-04-11,1,100
2018-04-12,2,105
2018-04-13,1,109
2018-04-14,2,106
2018-04-15,0,97
2018-04-16,1,108
2018-04-17,1,102
2018-04-18,3,112
2018-04-19,2,105
2018-04-20,2,94
2018-04-21,0,112
2018-04-22,2,92
2018-04-23,1,105
2018-04-24,0,107
2018-04-25,0,112
2018-04-26,1,99
2018-04-27,2,103
2018-04-28,1,108
2018-04-29,1,90
2018-04-30,2,111
2018-05-01,0,97
2018-05-02,0,106
2018-05-03,1,106
2018-05-04,2,111
2018-05-05,1,89
2018-05-06,1,93
2018-05-07,0,106
2018-05-08,0,108
2018-05-09,2,103
2018-05-10,0,110
2018-05-11,1,100
2018-05-12,0,99
2018-05-13,0,94
2018-05-14,0,106
2018-05-15,1,102
2018-05-16,0,106
2018-05-17,0,101
2018-05-18,0,113
2018-05-19,1,65
2018-05-20,0,104
2018-05-21,0,94
2018-05-22,0,103
2018-05-23,0,93
2018-05-24,0,105
2018-05-25,0,106
2018-05-26,0,94
2018-05-27,1,98
2018-05-28,2,100
2018-05-29,1,97
2018-05-30,2,107
2018-05-31,0,101
2018-06-01,2,94
2018-06-02,2,80
2018-06-03,0,86
2018-06-04,0,93
2018-06-05,2,96
2018-06-06,1,106
2018-06-07,0,91
2018-06-08,0,102
2018-06-09,1,99
2018-06-10,1,89
2018-06-11,0,98
2018-06-12,1,92
2018-06-13,0,95
2018-06-14,1,99
2018-06-15,0,93
2018-06-16,2,95
2018-06-17,1,87
2018-06-18,1,86
2018-06-19,0,98
2018-06-20,0,47
2018-06-21,1,65
2018-06-22,0,117
2018-06-23,1,83
2018-06-24,0,88
2018-06-25,0,98
2018-06-26,1,97
2018-06-27,1,91
2018-06-28,1,99
2018-06-29,0,101
2018-06-30,1,90
2018-07-01,0,90
2018-07-02,0,98
2018-07-03,0,102
2018-07-04,1,97
2018-07-05,0,89
2018-07-06,1,106
2018-07-07,1,92
2018-07-08,0,103
2018-07-09,0,100
2018-07-10,1,98
2018-07-11,1,96
2018-07-12,1,110
2018-07-13,0,98
2018-07-14,1,103
2018-07-15,2,88
2018-07-16,2,99
2018-07-17,0,108
2018-07-18,0,85
2018-07-19,1,115
2018-07-20,1,98
2018-07-21,0,100
2018-07-22,1,100
2018-07-23,0,105
2018-07-24,1,120
2018-07-25,2,103
2018-07-26,0,110
2018-07-27,0,111
2018-07-28,2,98
2018-07-29,1,100
2018-07-30,1,112
2018-07-31,1,97
2018-08-01,1,102
2018-08-02,0,103
2018-08-03,1,107
2018-08-04,1,101
2018-08-05,0,102
2018-08-06,1,116
2018-08-07,3,97
2018-08-08,0,96
2018-08-09,1,89
2018-08-10,3,103
2018-08-11,4,100
2018-08-12,4,88
2018-08-13,3,105
2018-08-14,1,95
2018-08-15,1,113
2018-08-16,0,109
2018-08-17,0,97
2018-08-18,1,99
2018-08-19,2,91
2018-08-20,1,115
2018-08-21,2,95
2018-08-22,2,110
2018-08-23,0,99
2018-08-24,2,101
2018-08-25,0,95
2018-08-26,4,95
2018-08-27,2,102
2018-08-28,1,94
2018-08-29,0,103
2018-08-30,1,111
2018-08-31,0,108
2018-09-01,1,105
2018-09-02,0,94
2018-09-03,0,97
2018-09-04,0,112
2018-09-05,0,84
2018-09-06,0,100
2018-09-07,1,97
2018-09-08,2,86
2018-09-09,0,98
2018-09-10,0,101
2018-09-11,2,102
2018-09-12,0,101
2018-09-13,0,99
2018-09-14,1,93
2018-09-15,0,95
2018-09-16,3,87
2018-09-17,0,97
2018-09-18,0,94
2018-09-19,0,97
2018-09-20,0,99
2018-09-21,0,109
2018-09-22,0,86
2018-09-23,1,99
2018-09-24,0,91
2018-09-25,2,106
2018-09-26,2,100
2018-09-27,1,88
2018-09-28,0,105
2018-09-29,1,101
2018-09-30,0,118
2018-10-01,2,67
2018-10-02,2,98
2018-10-03,2,83
2018-10-04,1,98
2018-10-05,1,90
2018-10-06,5,88
2018-10-07,1,106
2018-10-08,1,118
2018-10-09,1,104
2018-10-10,1,110
2018-10-11,4,110
2018-10-12,2,110
2018-10-13,1,110
2018-10-14,1,104
2018-10-15,1,103
2018-10-16,2,111
2018-10-17,1,111
2018-10-18,1,111
2018-10-19,1,105
2018-10-20,3,97
2018-10-21,2,101
2018-10-22,1,116
2018-10-23,0,111
2018-10-24,1,119